This is the latest recevied weather packets stored in our database for station/object K2ATL. If no packets are shown the sender has not sent any weather packets the latest 10 day(s).
| Time | Temp. | Humidity | Pressure | Rain* | Wind** | Luminosity | Snow |
|---|---|---|---|---|---|---|---|
| 1787829119 | 20.56° C | 99% | 1102.5 hPa | 4.83 mm | - | 1 W/m² | - |
| 1787828819 | 20° C | 98% | 1102.5 hPa | 7.87 mm | - | 0 W/m² | - |
| 1787828516 | 20° C | 98% | 1102.3 hPa | 9.65 mm | - | 0 W/m² | - |
| 1787828215 | 20° C | 98% | 1102.4 hPa | 10.67 mm | - | 0 W/m² | - |
| 1787827914 | 20° C | 98% | 1102.4 hPa | 19.81 mm | - | 0 W/m² | - |
| 1787827610 | 20.56° C | 97% | 1102.4 hPa | 16.76 mm | - | 0 W/m² | - |
| 1787827309 | 20.56° C | 96% | 1101.9 hPa | 7.87 mm | - | 0 W/m² | - |
| 1787827009 | 20.56° C | 95% | 1101.8 hPa | 3.05 mm | - | 0 W/m² | - |
| 1787826708 | 21.11° C | 93% | 1102 hPa | 0 mm | - | 0 W/m² | - |
| 1787826404 | 21.11° C | 93% | 1102 hPa | 0 mm | - | 0 W/m² | - |
| 1787826101 | 21.11° C | 92% | 1102.1 hPa | 0 mm | - | 0 W/m² | - |
| 1787825799 | 21.11° C | 92% | 1102 hPa | 0 mm | - | 0 W/m² | - |
| 1787825498 | 21.11° C | 92% | 1101.9 hPa | 0 mm | - | 0 W/m² | - |
| 1787825193 | 21.11° C | 91% | 1101.9 hPa | 0 mm | - | 0 W/m² | - |
| 1787824890 | 21.11° C | 92% | 1101.9 hPa | 0 mm | - | 0 W/m² | - |
| 1787824584 | 21.11° C | 91% | 1101.8 hPa | 0 mm | - | 0 W/m² | - |
| 1787824279 | 21.11° C | 92% | 1101.9 hPa | 0 mm | - | 0 W/m² | - |
| 1787823975 | 21.67° C | 91% | 1101.9 hPa | 0 mm | - | 0 W/m² | - |
| 1787823670 | 21.11° C | 91% | 1102 hPa | 0 mm | - | 0 W/m² | - |
| 1787823369 | 21.67° C | 91% | 1102 hPa | 0 mm | - | 0 W/m² | - |
| 1787823069 | 21.11° C | 91% | 1102.2 hPa | 0 mm | - | 0 W/m² | - |
| 1787822764 | 21.11° C | 91% | 1102.1 hPa | 0 mm | - | 0 W/m² | - |
| 1787822458 | 21.11° C | 91% | 1102.2 hPa | 0 mm | - | 0 W/m² | - |
| 1787822153 | 21.11° C | 91% | 1102.2 hPa | 0 mm | - | 0 W/m² | - |
| 1787821851 | 21.11° C | 92% | 1102 hPa | 0 mm | - | 0 W/m² | - |
* Rain latest hour (hover to see other rain measurements)
** Current wind speed in m/s (hover to see current wind gust speed)